Flag for Madagascar Weather past 2 weeks in Antananarivo, Madagascar

Now
59 °F

Passing clouds.


Feels Like: 58 °F
Forecast: 52 / 71 °F
Wind: 6 mph from East

Location: Antananarivo / Ivato

Current Time: Jul 1, 2015 at 6:19:43 PM

Latest Report: Jul 1, 2015 at 6:00 PM


Visibility: N/A

Pressure: 30.24 "Hg

Humidity: 100%

Dew point: 59 °F

Location of AntananarivoLocation

Historic Weather in Antananarivo — Graph

°F

Antananarivo temperature yesterday

Maximum temperature yesterday: 73 °F (at 1:30 PM)
Minimum temperature yesterday: 52 °F (at 5:30 AM)
Average temperature yesterday: 62 °F

Past Weeks' High & Low Weather Summary

 TemperatureHumidityPressure
High75 °F (Jun 18, 2:00 PM)100% (Jun 16, 8:30 PM)30.39 "Hg (Jun 16, 8:30 PM)
Low46 °F (Jun 18, 3:00 AM)44% (Jun 18, 4:00 PM)30.09 "Hg (Jun 17, 1:00 PM)
Average60 °F90%30.29 "Hg
* Reported Jun 16 5:00 PM — Jul 1 5:00 PM, Antananarivo, Weather by CustomWeather, © 2015

Note: Actual official high and low records may vary slightly from our data, if they occured in-between our weather recording intervals... More about our weather records

Advertising

Antananarivo weather history for previous 24 hours

 ConditionsComfort  
Time TempWeatherWind HumidityBarometerVisibility
5:00 PM
Wed, Jul 1
61 °FScattered showers. Broken clouds.7 mph88%30.24 "HgN/A
4:30 PM61 °FBroken clouds.6 mph88%30.24 "HgN/A
4:00 PM63 °FBroken clouds.6 mph83%30.21 "HgN/A
3:30 PM63 °FScattered showers. Broken clouds.6 mph83%30.21 "HgN/A
3:00 PM64 °FBroken clouds.7 mph78%30.21 "HgN/A
2:30 PM64 °FBroken clouds.5 mph78%30.21 "HgN/A
2:00 PM64 °FBroken clouds.6 mph73%30.21 "HgN/A
1:30 PM64 °FBroken clouds.7 mph73%30.21 "HgN/A
1:00 PM64 °FBroken clouds.6 mph73%30.24 "HgN/A
12:30 PM64 °FBroken clouds.3 mph73%30.24 "HgN/A
12:00 PM66 °FBroken clouds.No wind68%30.24 "HgN/A
11:30 AM64 °FBroken clouds.2 mph73%30.24 "HgN/A
11:00 AM63 °FPartly sunny.5 mph77%30.27 "HgN/A
10:30 AM63 °FBroken clouds.3 mph83%30.27 "HgN/A
10:00 AM61 °FBroken clouds.No wind88%30.27 "HgN/A
9:30 AM59 °FScattered clouds.No wind94%30.27 "HgN/A
9:00 AM57 °FScattered clouds.No wind100%30.27 "HgN/A
8:30 AM55 °FScattered clouds.3 mph100%30.27 "HgN/A
8:00 AM55 °FScattered clouds.1 mph100%30.27 "HgN/A
7:30 AM52 °FScattered clouds.No wind100%30.24 "HgN/A
7:00 AM48 °FPassing clouds.No wind100%30.24 "Hg5 mi
6:30 AM48 °FFog.No wind100%30.24 "Hg2 mi
6:00 AM48 °FPassing clouds.No wind100%30.24 "HgN/A
5:30 AM50 °FPassing clouds.No wind100%30.21 "HgN/A
5:00 AM50 °FPassing clouds.No wind100%30.21 "HgN/A
4:30 AM50 °FPassing clouds.No wind100%30.21 "HgN/A
4:00 AM50 °FPassing clouds.No wind100%30.21 "HgN/A
3:00 AM52 °FPassing clouds.No wind100%30.21 "HgN/A
2:30 AM52 °FPassing clouds.No wind100%30.21 "HgN/A
2:00 AM50 °FPassing clouds.No wind100%30.24 "HgN/A
1:30 AM50 °FPassing clouds.No wind100%30.24 "HgN/A
1:00 AM52 °FPassing clouds.No wind100%30.24 "HgN/A
12:33 AM52 °FCool.N/A100%30.24 "HgN/A
12:00 AM54 °FPassing clouds.No wind100%30.24 "HgN/A
11:00 PM
Tue, Jun 30
54 °FPassing clouds.No wind100%30.27 "HgN/A
10:30 PM55 °FPassing clouds.No wind100%30.27 "HgN/A
10:00 PM57 °FPassing clouds.1 mph100%30.27 "HgN/A
9:30 PM57 °FPassing clouds.5 mph100%30.24 "HgN/A
9:00 PM57 °FPassing clouds.7 mph100%30.24 "HgN/A
8:00 PM57 °FPassing clouds.7 mph100%30.24 "HgN/A
7:30 PM57 °FPassing clouds.No wind88%30.24 "HgN/A
7:00 PM59 °FPassing clouds.No wind77%30.21 "HgN/A
6:00 PM63 °FPassing clouds.No wind68%30.21 "HgN/A
Weather by CustomWeather, © 2015

See weather overviewHow to use our weather pages